TimeCST,TemperatureF,Dew PointF,Humidity,Sea Level PressureIn,VisibilityMPH,Wind Direction,Wind SpeedMPH,Gust SpeedMPH,PrecipitationIn,Events,Conditions,WindDirDegrees,DateUTC
12:13 AM,26.6,21.2,80,29.97,0.8,ENE,20.7,28.8,0.00,Snow,Light Snow,70,2013-02-22 06:13:00
12:21 AM,26.6,21.2,80,29.96,0.8,ENE,18.4,27.6,0.00,Snow,Light Snow,70,2013-02-22 06:21:00
12:56 AM,25.0,21.0,85,29.97,0.8,East,19.6,-,0.01,Snow,Light Snow,80,2013-02-22 06:56:00
1:06 AM,24.8,21.2,86,29.95,1.0,ENE,16.1,-,0.00,Snow,Light Snow,70,2013-02-22 07:06:00
1:47 AM,24.8,21.2,86,29.94,0.8,East,17.3,27.6,0.01,Snow,Light Snow,80,2013-02-22 07:47:00
1:56 AM,25.0,21.0,85,29.96,0.8,East,17.3,-,0.01,Snow,Light Snow,80,2013-02-22 07:56:00
2:09 AM,24.8,21.2,86,29.93,1.0,East,16.1,-,0.00,Snow,Light Snow,80,2013-02-22 08:09:00
2:17 AM,24.8,21.2,86,29.92,1.0,East,13.8,-,0.00,Snow,Light Snow,80,2013-02-22 08:17:00
2:56 AM,25.0,21.0,85,29.94,1.2,East,15.0,-,0.01,Snow,Light Snow,80,2013-02-22 08:56:00
3:22 AM,24.8,21.2,86,29.90,0.8,East,15.0,-,0.00,Snow,Light Snow,80,2013-02-22 09:22:00
3:39 AM,24.8,21.2,86,29.89,0.5,East,17.3,-,0.00,Fog-Snow,Snow,80,2013-02-22 09:39:00
3:46 AM,24.8,21.2,86,29.88,1.0,East,13.8,-,0.00,Snow,Light Snow,80,2013-02-22 09:46:00
3:56 AM,25.0,21.0,85,29.90,2.5,East,15.0,-,0.00,Snow,Light Snow,80,2013-02-22 09:56:00
4:05 AM,24.8,19.4,80,29.88,3.0,East,13.8,-,0.00,Snow,Light Snow,80,2013-02-22 10:05:00
4:12 AM,24.8,19.4,80,29.87,3.0,East,15.0,-,0.01,Snow,Light Snow,80,2013-02-22 10:12:00
4:34 AM,24.8,19.4,80,29.86,3.0,East,16.1,-,0.01,Snow,Light Snow,80,2013-02-22 10:34:00
4:56 AM,25.0,19.9,81,29.88,8.0,East,16.1,-,0.01,,Overcast,80,2013-02-22 10:56:00
5:45 AM,24.8,19.4,80,29.85,9.0,East,12.7,-,N/A,,Overcast,80,2013-02-22 11:45:00
5:56 AM,25.0,21.0,85,29.86,9.0,East,12.7,-,N/A,,Overcast,90,2013-02-22 11:56:00
6:56 AM,25.0,21.9,88,29.85,3.0,East,12.7,-,N/A,,Overcast,80,2013-02-22 12:56:00
7:07 AM,24.8,21.2,86,29.83,2.0,East,12.7,-,N/A,,Overcast,80,2013-02-22 13:07:00
7:49 AM,26.6,21.2,80,29.83,3.0,ENE,9.2,-,N/A,,Overcast,70,2013-02-22 13:49:00
7:56 AM,26.1,21.9,84,29.85,2.5,East,8.1,-,0.00,Snow,Light Snow,80,2013-02-22 13:56:00
8:20 AM,26.6,23.0,86,29.83,1.8,East,6.9,-,0.00,Snow,Light Snow,80,2013-02-22 14:20:00
8:56 AM,26.1,23.0,88,29.84,1.2,ENE,4.6,-,0.00,Snow,Light Snow,60,2013-02-22 14:56:00
9:21 AM,26.6,23.0,86,29.82,0.8,NE,4.6,-,0.01,Snow,Light Snow,50,2013-02-22 15:21:00
9:30 AM,26.6,23.0,86,29.82,1.0,NE,4.6,-,0.01,Snow,Light Snow,50,2013-02-22 15:30:00
9:43 AM,26.6,23.0,86,29.82,1.0,NE,4.6,-,0.01,Snow,Light Snow,50,2013-02-22 15:43:00
9:54 AM,26.6,23.0,86,29.82,1.0,NE,4.6,-,0.01,Snow,Light Snow,40,2013-02-22 15:54:00
9:56 AM,27.0,23.0,85,29.83,1.0,NE,3.5,-,0.01,Snow,Light Snow,40,2013-02-22 15:56:00
10:07 AM,26.6,23.0,86,29.82,0.8,NE,3.5,-,0.00,Snow,Light Snow,50,2013-02-22 16:07:00
10:16 AM,26.6,23.0,86,29.82,1.0,Calm,Calm,-,0.01,Snow,Light Snow,0,2013-02-22 16:16:00
10:52 AM,28.4,24.8,86,29.83,0.8,Calm,Calm,-,0.01,Snow,Light Snow,0,2013-02-22 16:52:00
10:56 AM,28.0,24.1,85,29.84,0.8,Calm,Calm,-,0.01,Snow,Light Snow,0,2013-02-22 16:56:00
11:39 AM,28.4,24.8,86,29.81,1.0,Calm,Calm,-,0.01,Snow,Light Snow,0,2013-02-22 17:39:00
11:56 AM,28.9,25.0,85,29.82,1.5,East,3.5,-,0.01,Snow,Light Snow,80,2013-02-22 17:56:00
12:13 PM,30.2,24.8,80,29.79,2.5,East,6.9,-,0.00,Snow,Light Snow,80,2013-02-22 18:13:00
12:21 PM,30.2,24.8,80,29.79,3.0,East,3.5,-,0.00,Snow,Light Snow,90,2013-02-22 18:21:00
12:28 PM,30.2,24.8,80,29.79,2.5,ESE,4.6,-,0.00,Snow,Light Snow,120,2013-02-22 18:28:00
12:41 PM,28.4,24.8,86,29.79,3.0,Calm,Calm,-,0.00,Snow,Light Snow,0,2013-02-22 18:41:00
12:56 PM,30.0,25.0,82,29.81,4.0,Calm,Calm,-,0.00,,Haze,0,2013-02-22 18:56:00
1:56 PM,28.9,24.1,82,29.82,2.0,Calm,Calm,-,0.00,Snow,Light Snow,0,2013-02-22 19:56:00
2:17 PM,28.4,24.8,86,29.80,4.0,Calm,Calm,-,0.00,Snow,Light Snow,0,2013-02-22 20:17:00
2:56 PM,30.0,24.1,79,29.82,2.5,West,3.5,-,0.00,Snow,Light Snow,280,2013-02-22 20:56:00
3:12 PM,30.2,24.8,80,29.80,4.0,Calm,Calm,-,0.00,Snow,Light Snow,0,2013-02-22 21:12:00
3:56 PM,30.9,24.1,76,29.81,6.0,NW,3.5,-,0.00,,Haze,310,2013-02-22 21:56:00
4:56 PM,30.0,23.0,75,29.84,8.0,West,4.6,-,N/A,,Overcast,280,2013-02-22 22:56:00
5:13 PM,30.2,23.0,75,29.83,7.0,West,4.6,-,N/A,,Overcast,280,2013-02-22 23:13:00
5:56 PM,28.9,23.0,78,29.85,8.0,WSW,3.5,-,N/A,,Overcast,250,2013-02-22 23:56:00
6:06 PM,28.4,23.0,80,29.83,9.0,WSW,3.5,-,N/A,,Overcast,240,2013-02-23 00:06:00
6:56 PM,26.1,21.0,81,29.86,8.0,WSW,5.8,-,N/A,,Overcast,250,2013-02-23 00:56:00
7:56 PM,28.0,21.9,78,29.87,9.0,West,5.8,-,N/A,,Overcast,270,2013-02-23 01:56:00
8:56 PM,28.0,21.0,75,29.88,10.0,West,5.8,-,N/A,,Overcast,270,2013-02-23 02:56:00
9:56 PM,28.0,21.0,75,29.87,9.0,West,4.6,-,N/A,,Overcast,260,2013-02-23 03:56:00
10:56 PM,27.0,19.0,72,29.87,10.0,West,9.2,-,N/A,,Overcast,270,2013-02-23 04:56:00
11:56 PM,27.0,19.0,72,29.87,10.0,West,10.4,-,N/A,,Overcast,280,2013-02-23 05:56:00